Change the Weather History Date:

Tuesday, January 7, 2014

  Actual Average Record
Temperature  
Mean Temperature 37 °F -  
Max Temperature 44 °F 44 °F 68 °F (2006)
Min Temperature 28 °F 23 °F 7 °F (1991)
Degree Days  
Heating Degree Days 28    
Moisture  
Dew Point 16 °F    
Average Humidity 42    
Maximum Humidity 69    
Minimum Humidity 18    
Precipitation  
Precipitation 0.00 in - - ()
Sea Level Pressure  
Sea Level Pressure 29.99 in    
Wind  
Wind Speed 19 mph (NW)    
Max Wind Speed 38 mph    
Max Gust Speed 44 mph    
Visibility 11 miles    
Events      
Averages and records for this station are not official NWS values.
T = Trace of Precipitation, MM = Missing Value Source: NWS Daily Summary

Daily Weather History Graph

Daily Weather History Graph

Search for Another Location

Airport or City:

Trip Planner

Search our weather history database for the weather conditions in past years. The results will help you decide how hot, cold, wet, or windy it might be!

Date:

Astronomy

Jan. 07, 2014 Rise Set
Actual Time 7:22 AM MST 4:51 PM MST
Civil Twilight 6:51 AM MST 5:21 PM MST
Nautical Twilight 6:18 AM MST 5:55 PM MST
Astronomical Twilight 5:45 AM MST 6:28 PM MST
Moon 11:12 AM MST (1/7) No Moon Set
Length of Visible Light 10h 29m
Length of Day
9h 29m
Waxing Crescent, 46% of the Moon is Illuminated
Jan 7
Waxing Crescent
Jan 7
First Quarter
Jan 15
Full
Jan 23
Last Quarter
Jan 30
New

Hourly Weather History & Observations

Time (MST) Temp. Windchill Dew Point Humidity Pressure Visibility Wind Dir Wind Speed Gust Speed Precip Events Conditions
12:15 AM 37.4 °F 25.0 °F 12.2 °F 36% 30.03 in 10.0 mi WNW 29.9 mph 41.4 mph N/A   Clear
12:35 AM 37.4 °F 25.4 °F 12.2 °F 36% 30.03 in 10.0 mi WNW 27.6 mph 40.3 mph N/A   Clear
12:55 AM 39.2 °F 26.1 °F 12.2 °F 33% 30.01 in 10.0 mi WNW 38.0 mph 43.7 mph N/A   Clear
1:15 AM 41.0 °F 30.5 °F 12.2 °F 31% 30.01 in 10.0 mi WNW 26.5 mph 40.3 mph N/A   Clear
1:35 AM 39.2 °F 27.6 °F 12.2 °F 33% 30.01 in 10.0 mi WNW 28.8 mph 34.5 mph N/A   Clear
1:55 AM 41.0 °F 29.5 °F 10.4 °F 29% 30.01 in 10.0 mi WNW 32.2 mph 38.0 mph N/A   Clear
2:15 AM 41.0 °F 30.7 °F 10.4 °F 29% 30.02 in 10.0 mi NW 25.3 mph 38.0 mph N/A   Clear
2:35 AM 41.0 °F 29.8 °F 10.4 °F 29% 30.01 in 10.0 mi WNW 29.9 mph 38.0 mph N/A   Clear
2:54 AM 41.0 °F 30.9 °F 10.4 °F 29% 30.02 in 10.0 mi WNW 24.2 mph 34.5 mph N/A   Clear
3:15 AM 41.0 °F 30.2 °F 12.2 °F 31% 30.01 in 10.0 mi WNW 27.6 mph - N/A   Clear
3:35 AM 42.8 °F 33.5 °F 10.4 °F 27% 30.02 in 10.0 mi WNW 23.0 mph 34.5 mph N/A   Clear
3:55 AM 42.8 °F 33.8 °F 10.4 °F 27% 30.02 in 10.0 mi WNW 21.9 mph 29.9 mph N/A   Clear
4:15 AM 41.0 °F 33.5 °F 10.4 °F 29% 30.02 in 10.0 mi NW 13.8 mph 19.6 mph N/A   Clear
4:35 AM 41.0 °F 34.3 °F 12.2 °F 31% 30.01 in 10.0 mi West 11.5 mph - N/A   Clear
4:54 AM 44.6 °F 41.4 °F 3.2 °F 18% 30.00 in 10.0 mi West 5.8 mph 19.6 mph N/A   Clear
5:50 AM 44.6 °F 36.4 °F 10.4 °F 25% 29.99 in 20.0 mi West 20.7 mph - N/A   Mostly Cloudy
6:47 AM 42.8 °F 37.0 °F 10.4 °F 27% 29.99 in 20.0 mi ENE 10.4 mph - N/A   Mostly Cloudy
7:47 AM 42.8 °F 39.3 °F 14.0 °F 31% 29.99 in 60.0 mi Variable 5.8 mph - N/A   Mostly Cloudy
8:13 AM 37.4 °F 30.8 °F 15.8 °F 41% 29.99 in 60.0 mi ESE 9.2 mph - N/A   Mostly Cloudy
8:50 AM 39.2 °F 35.9 °F 15.8 °F 39% 30.01 in 50.0 mi SSE 4.6 mph - N/A   Mostly Cloudy
9:47 AM 39.2 °F 35.0 °F 17.6 °F 42% 30.01 in 50.0 mi SE 5.8 mph - N/A   Mostly Cloudy
10:47 AM 39.2 °F - 17.6 °F 42% 29.99 in 50.0 mi Calm Calm - N/A   Mostly Cloudy
11:47 AM 41.0 °F - 19.4 °F 42% 29.96 in 50.0 mi Calm Calm - N/A   Mostly Cloudy
12:47 PM 41.0 °F - 17.6 °F 39% 29.92 in 50.0 mi Calm Calm - N/A   Mostly Cloudy
1:45 PM 41.0 °F 36.4 °F 24.8 °F 53% 29.92 in 50.0 mi NNW 6.9 mph - N/A   Mostly Cloudy
3:55 PM 39.2 °F 37.0 °F 21.2 °F 49% 29.93 in 30.0 mi North 3.5 mph - N/A   Mostly Cloudy
4:53 PM 39.2 °F - 19.4 °F 45% 29.97 in 30.0 mi Calm Calm - N/A   Mostly Cloudy
5:56 PM 41.0 °F 37.1 °F 21.2 °F 45% 29.92 in 30.0 mi Variable 5.8 mph - N/A   Mostly Cloudy
6:47 PM 37.4 °F 30.8 °F 24.8 °F 60% 29.92 in 30.0 mi WSW 9.2 mph - N/A   Mostly Cloudy
7:47 PM 37.4 °F 31.4 °F 24.8 °F 60% 29.93 in 30.0 mi ENE 8.1 mph - N/A   Mostly Cloudy
8:50 PM 33.8 °F 28.6 °F 21.2 °F 60% 29.97 in 30.0 mi NNE 5.8 mph - N/A   Mostly Cloudy
9:53 PM 30.2 °F 25.4 °F 19.4 °F 64% 29.97 in 20.0 mi Variable 4.6 mph - N/A   Overcast
10:15 PM 32.0 °F - 21.2 °F 64% 29.97 in 10.0 mi Calm Calm - N/A   Clear
10:32 PM 32.0 °F 25.6 °F 19.4 °F 60% 29.97 in 10.0 mi WNW 6.9 mph - N/A   Clear
10:55 PM 32.0 °F 25.6 °F 21.2 °F 64% 29.98 in 10.0 mi North 6.9 mph - N/A   Mostly Cloudy
11:15 PM 32.0 °F 22.1 °F 19.4 °F 60% 29.98 in 10.0 mi NNE 13.8 mph - N/A   Mostly Cloudy
11:33 PM 30.2 °F 21.9 °F 19.4 °F 64% 29.99 in 10.0 mi North 9.2 mph - N/A   Mostly Cloudy
11:54 PM 28.4 °F 19.1 °F 19.4 °F 69% 30.00 in 10.0 mi NNW 10.4 mph - N/A   Scattered Clouds